timestamp,surface_pressure_avg,surface_temp_avg,battery_voltage,lat,long
2020-11-11 00:09:01+00:00,227.8698,8.1,12.73,47.84626,-54.09684
2020-11-11 00:19:01+00:00,226.0781,8.1,12.73,47.84626,-54.09684
2020-11-11 00:29:01+00:00,224.0631,8.1,12.73,47.84626,-54.09684
2020-11-11 00:39:01+00:00,213.7715,8.1,12.73,47.84626,-54.09684
2020-11-11 00:49:01+00:00,213.1115,8.1,12.73,47.84626,-54.09684
2020-11-11 00:59:01+00:00,214.7248,8.1,12.73,47.84626,-54.09684
2020-11-11 01:09:01+00:00,207.0881,8.1,12.73,47.84626,-54.09684
2020-11-11 01:19:01+00:00,205.2248,8.1,12.73,47.84626,-54.09684
2020-11-11 01:29:01+00:00,207.4998,8.1,12.73,47.84626,-54.09684
2020-11-11 01:39:01+00:00,200.4281,8.1,12.73,47.84626,-54.09684
2020-11-11 01:49:01+00:00,201.8331,8.1,12.73,47.84626,-54.09684
2020-11-11 01:59:01+00:00,210.4565,8.1,12.73,47.84626,-54.09684
2020-11-11 02:09:01+00:00,206.2314,8.1,12.73,47.84626,-54.09684
2020-11-11 02:19:01+00:00,198.4148,8.11,12.65,47.84626,-54.09684
2020-11-11 02:29:01+00:00,205.9731,8.11,12.65,47.84626,-54.09684
2020-11-11 02:39:01+00:00,212.0865,8.11,12.65,47.84626,-54.09684
2020-11-11 02:49:01+00:00,206.2298,8.12,12.65,47.84626,-54.09684
2020-11-11 02:59:01+00:00,208.2398,8.1,12.65,47.84626,-54.09684
2020-11-11 03:09:01+00:00,219.2798,8.1,12.65,47.84626,-54.09684
2020-11-11 03:19:01+00:00,215.6698,8.11,12.65,47.84626,-54.09684
2020-11-11 03:29:01+00:00,216.2531,8.13,12.65,47.84626,-54.09684
2020-11-11 03:39:01+00:00,227.0998,8.13,12.65,47.84626,-54.09684
2020-11-11 03:49:01+00:00,230.8098,8.15,12.65,47.84626,-54.09684
2020-11-11 03:59:01+00:00,225.998,8.16,12.65,47.84626,-54.09684
2020-11-11 04:09:01+00:00,233.8165,8.17,12.65,47.84626,-54.09684
2020-11-11 04:19:01+00:00,247.4031,8.17,12.65,47.84626,-54.09684
2020-11-11 04:29:01+00:00,250.7248,8.18,12.65,47.84626,-54.09684
2020-11-11 04:39:01+00:00,253.9414,8.19,12.65,47.84626,-54.09684
2020-11-11 04:49:01+00:00,264.6031,8.19,12.65,47.84626,-54.09684
2020-11-11 04:59:01+00:00,272.8931,8.19,12.65,47.84626,-54.09684
2020-11-11 05:09:01+00:00,275.4647,8.19,12.65,47.84626,-54.09684
2020-11-11 05:19:01+00:00,281.6847,8.19,12.65,47.84626,-54.09684
2020-11-11 05:29:01+00:00,295.1031,8.2,12.65,47.84626,-54.09684
2020-11-11 05:39:01+00:00,301.7631,8.2,12.65,47.84626,-54.09684
2020-11-11 05:49:01+00:00,308.363,8.2,12.65,47.84626,-54.09684
2020-11-11 05:59:01+00:00,314.4413,8.2,12.65,47.84626,-54.09684
2020-11-11 06:09:01+00:00,319.6463,8.2,12.65,47.84626,-54.09684
2020-11-11 06:19:01+00:00,319.5797,8.2,12.65,47.84626,-54.09684
2020-11-11 06:29:01+00:00,327.7629,8.2,12.65,47.84626,-54.09684
2020-11-11 06:39:01+00:00,330.353,8.2,12.65,47.84626,-54.09684
2020-11-11 06:49:01+00:00,326.9696,8.2,12.65,47.84626,-54.09684
2020-11-11 06:59:01+00:00,327.7762,8.2,12.65,47.84626,-54.09684
2020-11-11 07:09:01+00:00,331.728,8.2,12.65,47.84626,-54.09684
2020-11-11 07:19:01+00:00,333.2112,8.2,12.65,47.84626,-54.09684
2020-11-11 07:29:01+00:00,332.11800000000005,8.2,12.65,47.84626,-54.09684
2020-11-11 07:39:01+00:00,332.3096,8.2,12.65,47.84626,-54.09684
2020-11-11 07:49:01+00:00,335.6364,8.2,12.65,47.84626,-54.09684
2020-11-11 07:59:01+00:00,339.3729,8.2,12.65,47.84626,-54.09684
2020-11-11 08:09:01+00:00,339.4213,8.2,12.65,47.84626,-54.09684
2020-11-11 08:19:01+00:00,338.8396,8.2,12.65,47.84626,-54.09684
2020-11-11 08:29:01+00:00,341.023,8.2,12.65,47.84626,-54.09684
2020-11-11 08:39:01+00:00,339.5596,8.2,12.65,47.84626,-54.09684
2020-11-11 08:49:01+00:00,335.9113,8.2,12.65,47.84626,-54.09684
2020-11-11 08:59:01+00:00,334.773,8.1,12.65,47.84626,-54.09684
2020-11-11 09:09:01+00:00,332.3246,8.1,12.65,47.84626,-54.09684
2020-11-11 09:19:01+00:00,331.6546,8.1,12.65,47.84626,-54.09684
2020-11-11 09:29:01+00:00,329.9647,8.1,12.65,47.84626,-54.09684
2020-11-11 09:39:01+00:00,324.5047,8.1,12.65,47.84626,-54.09684
2020-11-11 09:49:01+00:00,319.9879,8.1,12.65,47.84626,-54.09684
2020-11-11 09:59:01+00:00,321.0496,8.13,12.65,47.84626,-54.09684
2020-11-11 10:09:01+00:00,318.0463,8.1,12.65,47.84626,-54.09684
2020-11-11 10:19:01+00:00,303.6713,8.0,12.65,47.84626,-54.09684
2020-11-11 10:29:01+00:00,294.1563,8.04,12.65,47.84626,-54.09684
2020-11-11 10:39:01+00:00,296.4814,8.0,12.65,47.84626,-54.09684
2020-11-11 10:49:01+00:00,294.953,7.8,12.65,47.84626,-54.09684
2020-11-11 10:59:01+00:00,284.2881,7.7,12.65,47.84626,-54.09684
2020-11-11 11:09:01+00:00,280.3181,7.6,12.65,47.84626,-54.09684
2020-11-11 11:19:01+00:00,281.683,7.6,12.65,47.84626,-54.09684
2020-11-11 11:29:01+00:00,278.0147,7.59,12.65,47.84626,-54.09684
2020-11-11 11:39:01+00:00,265.0564,7.55,12.65,47.84626,-54.09684
2020-11-11 11:49:01+00:00,266.6581,7.6,12.65,47.84626,-54.09684
2020-11-11 11:59:01+00:00,269.6947,7.5,12.65,47.84626,-54.09684
2020-11-11 12:09:01+00:00,261.3697,7.53,12.65,47.84626,-54.09684
2020-11-11 12:19:01+00:00,250.0331,7.8,12.73,47.84626,-54.09684
2020-11-11 12:29:01+00:00,253.7781,7.97,12.73,47.84626,-54.09684
2020-11-11 12:39:01+00:00,256.7848,8.15,12.73,47.84626,-54.09684
2020-11-11 12:49:01+00:00,249.5981,8.18,12.73,47.84626,-54.09684
2020-11-11 12:59:01+00:00,247.3814,8.13,12.73,47.84626,-54.09684
2020-11-11 13:09:01+00:00,249.3798,8.12,12.73,47.84626,-54.09684
2020-11-11 13:19:01+00:00,243.2581,8.16,12.97,47.84626,-54.09684
2020-11-11 13:29:01+00:00,235.1947,8.09,12.97,47.84626,-54.09684
2020-11-11 13:39:01+00:00,237.9831,8.04,12.97,47.84626,-54.09684
2020-11-11 13:49:01+00:00,233.6648,8.09,12.97,47.84626,-54.09684
2020-11-11 13:59:01+00:00,225.8147,8.1,12.97,47.84626,-54.09684
2020-11-11 14:09:01+00:00,226.6831,8.08,12.97,47.84626,-54.09684
2020-11-11 14:19:01+00:00,234.2731,8.0,13.05,47.84626,-54.09684
2020-11-11 14:29:01+00:00,236.2848,8.09,13.05,47.84626,-54.09684
2020-11-11 14:39:01+00:00,230.5398,8.06,13.05,47.84626,-54.09684
2020-11-11 14:49:01+00:00,231.5664,8.0,13.05,47.84626,-54.09684
2020-11-11 14:59:01+00:00,236.7914,8.0,13.05,47.84626,-54.09684
2020-11-11 15:09:01+00:00,235.6664,7.98,13.05,47.84626,-54.09684
2020-11-11 15:19:01+00:00,235.4865,7.99,13.21,47.84626,-54.09684
2020-11-11 15:29:01+00:00,244.5714,8.0,13.21,47.84626,-54.09684
2020-11-11 15:39:01+00:00,247.1814,8.0,13.21,47.84626,-54.09684
2020-11-11 15:49:01+00:00,242.5964,7.98,13.21,47.84626,-54.09684
2020-11-11 15:59:01+00:00,250.3381,8.06,13.21,47.84626,-54.09684
2020-11-11 16:09:01+00:00,260.8531,8.19,13.21,47.84626,-54.09684
2020-11-11 16:19:01+00:00,262.0797,8.2,13.37,47.84626,-54.09684
2020-11-11 16:29:01+00:00,262.4698,8.17,13.37,47.84626,-54.09684
2020-11-11 16:39:01+00:00,272.5814,8.17,13.37,47.84626,-54.09684
2020-11-11 16:49:01+00:00,275.9914,8.2,13.37,47.84626,-54.09684
2020-11-11 16:59:01+00:00,276.7181,8.2,13.37,47.84626,-54.09684
2020-11-11 17:09:01+00:00,283.21299999999997,8.19,13.37,47.84626,-54.09684
2020-11-11 17:19:01+00:00,289.1764,8.19,13.21,47.84626,-54.09684
2020-11-11 17:29:01+00:00,290.8147,8.18,13.21,47.84626,-54.09684
2020-11-11 17:39:01+00:00,296.2747,8.18,13.21,47.84626,-54.09684
2020-11-11 17:49:01+00:00,308.2197,8.17,13.21,47.84626,-54.09684
2020-11-11 17:59:01+00:00,313.8347,8.19,13.21,47.84626,-54.09684
2020-11-11 18:09:01+00:00,314.9813,8.18,13.21,47.84626,-54.09684
2020-11-11 18:19:01+00:00,318.2097,8.18,13.05,47.84626,-54.09684
2020-11-11 18:29:01+00:00,331.5146,8.2,13.05,47.84626,-54.09684
2020-11-11 18:39:01+00:00,337.2496,8.2,13.05,47.84626,-54.09684
2020-11-11 18:49:01+00:00,334.8613,8.22,13.05,47.84626,-54.09684
2020-11-11 18:59:01+00:00,339.3796,8.3,13.05,47.84626,-54.09684
2020-11-11 19:09:01+00:00,352.0096,8.3,13.05,47.84626,-54.09684
2020-11-11 19:19:01+00:00,357.5363,8.34,12.89,47.84626,-54.09684
2020-11-11 19:29:01+00:00,359.0313,8.35,12.89,47.84626,-54.09684
2020-11-11 19:39:01+00:00,362.5146,8.35,12.89,47.84626,-54.09684
2020-11-11 19:49:01+00:00,361.5012,8.33,12.89,47.84626,-54.09684
2020-11-11 19:59:01+00:00,360.9713,8.3,12.89,47.84626,-54.09684
2020-11-11 20:09:01+00:00,367.0529,8.3,12.89,47.84626,-54.09684
2020-11-11 20:19:01+00:00,373.1379,8.3,12.81,47.84626,-54.09684
2020-11-11 20:29:01+00:00,369.3962,8.3,12.81,47.84626,-54.09684
2020-11-11 20:39:01+00:00,367.9097,8.3,12.81,47.84626,-54.09684
2020-11-11 20:49:01+00:00,367.2796,8.3,12.81,47.84626,-54.09684
2020-11-11 20:59:01+00:00,368.9113,8.3,12.81,47.84626,-54.09684
2020-11-11 21:09:01+00:00,372.2296,8.3,12.81,47.84626,-54.09684
2020-11-11 21:19:01+00:00,371.5978,8.3,12.81,47.84626,-54.09684
2020-11-11 21:29:01+00:00,361.7781,8.3,12.81,47.84626,-54.09684
2020-11-11 21:39:01+00:00,353.588,8.29,12.81,47.84626,-54.09684
2020-11-11 21:49:01+00:00,359.7346,8.29,12.81,47.84626,-54.09684
2020-11-11 21:59:01+00:00,356.0895,8.29,12.81,47.84626,-54.09684
2020-11-11 22:09:01+00:00,339.7364,8.2,12.81,47.84626,-54.09684
2020-11-11 22:19:01+00:00,335.858,8.25,12.73,47.84626,-54.09684
2020-11-11 22:29:01+00:00,341.1213,8.3,12.73,47.84626,-54.09684
2020-11-11 22:39:01+00:00,333.1296,8.3,12.73,47.84626,-54.09684
2020-11-11 22:49:01+00:00,325.6513,8.3,12.73,47.84626,-54.09684
2020-11-11 22:59:01+00:00,324.558,8.3,12.73,47.84626,-54.09684
2020-11-11 23:09:01+00:00,316.3513,8.3,12.73,47.84626,-54.09684
2020-11-11 23:19:01+00:00,299.0814,8.25,12.73,47.84626,-54.09684
2020-11-11 23:29:01+00:00,295.0264,8.3,12.73,47.84626,-54.09684
2020-11-11 23:39:01+00:00,286.8098,8.3,12.73,47.84626,-54.09684
2020-11-11 23:49:01+00:00,270.8247,8.2,12.73,47.84626,-54.09684
2020-11-11 23:59:01+00:00,258.9181,8.2,12.73,47.84626,-54.09684
